Waarnemingen

Advertentie
Mijn weer
Horn, Zweden (2557): temperatuur & dauwpunt: 19.05.2018 12:00:00 - 25.05.2018 12:00:00 (CEST)Horn, Zweden (2557): windsnelheid & windstoten: 19.05.2018 12:00:00 - 25.05.2018 12:00:00 (CEST)Horn, Zweden (2557): windrichting: 19.05.2018 12:00:00 - 25.05.2018 12:00:00 (CEST)Horn, Zweden (2557): luchtdruk: 19.05.2018 12:00:00 - 25.05.2018 12:00:00 (CEST)Horn, Zweden (2557): zicht: 19.05.2018 12:00:00 - 25.05.2018 12:00:00 (CEST)Horn, Zweden (2557): neerslag: 19.05.2018 12:00:00 - 25.05.2018 12:00:00 (CEST)
Datum & Tijd tt [°C] td [°C] ff [km/u] ff [kn] fx [km/u] fx [kn] dd ppp [hPa] vv [km] rr [mm]
25.05.2018 12:00:00 21,3 2,0 13 7 24 13 ONO - 35 0,0
25.05.2018 11:00:00 20,7 2,0 11 6 24 13 ONO - 41 0,0
25.05.2018 10:00:00 19,2 3,4 10 5 16 9 ONO - 39 0,0
25.05.2018 09:00:00 18,2 1,7 4 2 10 5 O - 44 0,0
25.05.2018 08:00:00 14,1 4,7 0 0 3 2 N - 43 0,0
25.05.2018 07:00:00 9,3 2,6 0 0 1 1 N - 39 0,0
25.05.2018 06:00:00 5,3 1,2 0 0 3 2 N - 49 0,0
25.05.2018 05:00:00 2,1 -0,5 0 0 3 2 N - 43 0,0
25.05.2018 04:00:00 1,8 -1,1 0 0 3 2 N - 50 0,0
25.05.2018 03:00:00 2,4 -0,9 0 0 1 1 N - 50 0,0
25.05.2018 02:00:00 3,7 0,2 0 0 4 2 N - 50 0,0
25.05.2018 01:00:00 4,7 0,3 0 0 6 3 N - 50 0,0
25.05.2018 00:00:00 5,9 1,2 0 0 6 3 N - 47 0,0
24.05.2018 23:00:00 8,3 1,7 4 2 9 5 O - 50 0,0
24.05.2018 22:00:00 10,1 1,7 0 0 14 8 N - 34 0,0
24.05.2018 21:00:00 15,4 -0,8 6 4 - - O - 38 -
24.05.2018 20:00:00 - - - - - - - - - -
24.05.2018 19:00:00 - - - - - - - - - -
24.05.2018 18:00:00 - - - - - - - - - -
24.05.2018 17:00:00 22,3 4,4 15 8 25 14 OZO 1028,7 - 0,0
24.05.2018 16:00:00 23,6 3,5 14 8 23 12 O 1028,7 - 0,0
24.05.2018 15:00:00 23,9 5,3 11 6 19 11 ONO 1029,0 - 0,0
24.05.2018 14:00:00 23,4 3,3 7 4 19 10 ONO 1029,5 - 0,0
24.05.2018 13:00:00 23,0 5,4 6 3 19 10 NO 1030,0 - 0,0
24.05.2018 12:00:00 22,7 6,1 12 6 22 12 OZO 1030,5 - 0,0
24.05.2018 11:00:00 21,3 6,0 13 7 22 12 NO 1030,8 - 0,0
24.05.2018 10:00:00 20,4 5,2 6 3 13 7 NO 1030,9 - 0,0
24.05.2018 09:00:00 18,5 7,9 3 2 6 3 W 1030,8 - 0,0
24.05.2018 08:00:00 15,3 7,8 2 1 6 3 WZW 1030,8 - 0,0
24.05.2018 07:00:00 11,2 7,3 0 0 4 2 N 1031,0 - 0,0
24.05.2018 06:00:00 6,8 3,9 0 0 4 2 N 1030,8 - 0,0
24.05.2018 05:00:00 4,6 2,5 0 0 3 2 N 1030,9 - 0,0
24.05.2018 04:00:00 4,4 1,9 0 0 6 3 N 1030,6 - 0,0
24.05.2018 03:00:00 5,5 3,2 0 0 6 3 N 1030,4 - 0,0
24.05.2018 02:00:00 6,4 4,1 0 0 9 5 N 1030,0 - 0,0
24.05.2018 01:00:00 8,2 4,2 2 1 15 8 OZO 1029,7 - 0,0
24.05.2018 00:00:00 12,7 6,3 3 2 15 8 OZO 1029,0 - 0,0
23.05.2018 23:00:00 14,9 6,2 8 4 14 8 O 1028,4 - 0,0
23.05.2018 22:00:00 15,2 6,0 5 3 18 10 NO 1027,7 - 0,0
23.05.2018 21:00:00 19,2 5,6 7 4 29 16 ONO 1026,4 - 0,0
23.05.2018 20:00:00 20,9 6,4 9 5 29 16 O 1025,5 - 0,0
23.05.2018 19:00:00 22,6 4,1 14 7 27 15 O 1024,7 - 0,0
23.05.2018 18:00:00 23,7 5,1 10 5 - - NNW 1024,0 - -
23.05.2018 17:00:00 - - - - - - - - - -
23.05.2018 16:00:00 - - - - - - - - - -
23.05.2018 15:00:00 25,4 5,0 9 5 21 12 N 1023,4 30 0,0
23.05.2018 14:00:00 25,3 5,0 12 7 19 11 N 1023,5 38 0,0
23.05.2018 13:00:00 24,4 4,2 5 3 18 10 NNW 1023,3 33 0,0
23.05.2018 12:00:00 23,7 5,1 6 3 16 9 WNW 1023,0 37 0,0
23.05.2018 11:00:00 22,9 4,4 6 4 14 7 WNW 1022,8 27 0,0
23.05.2018 10:00:00 21,4 9,0 0 0 5 3 N 1022,8 27 0,0
23.05.2018 09:00:00 18,5 8,2 0 0 3 2 N 1022,4 33 0,0
23.05.2018 08:00:00 15,9 10,4 0 0 3 2 N 1021,9 23 0,0
23.05.2018 07:00:00 11,1 10,0 0 0 2 1 N 1021,7 32 0,0
23.05.2018 06:00:00 6,0 5,7 0 0 5 3 N 1021,5 23 0,0
23.05.2018 05:00:00 2,3 1,9 0 0 5 3 N 1021,1 15 0,0
23.05.2018 04:00:00 2,7 2,1 0 0 5 3 N 1020,6 1,6 0,0
23.05.2018 03:00:00 3,0 2,4 0 0 5 3 N 1020,3 22 0,0
23.05.2018 02:00:00 4,1 3,4 0 0 8 4 N 1020,1 25 0,0
23.05.2018 01:00:00 4,3 3,6 0 0 8 4 N 1020,0 33 0,0
23.05.2018 00:00:00 5,1 3,6 0 0 0 0 N 1019,9 31 0,0
22.05.2018 23:00:00 6,5 4,3 0 0 6 3 N 1019,4 32 0,0
22.05.2018 22:00:00 9,6 6,5 0 0 11 6 N 1019,1 24 0,0
22.05.2018 21:00:00 14,2 6,8 4 2 27 15 ZO 1018,5 50 0,0
22.05.2018 20:00:00 16,8 6,6 6 3 27 15 OZO 1018,1 10 0,0
22.05.2018 19:00:00 19,8 5,1 13 7 23 12 OZO 1017,8 12 0,0
22.05.2018 18:00:00 20,9 4,0 11 6 25 14 OZO 1017,6 37 0,0
22.05.2018 17:00:00 22,0 5,4 12 7 25 14 NO 1017,8 39 0,0
22.05.2018 16:00:00 22,1 4,2 10 5 22 12 ONO 1017,9 35 0,0
22.05.2018 15:00:00 22,0 4,5 13 7 24 13 ONO 1018,4 38 0,0
22.05.2018 14:00:00 21,6 6,7 11 6 24 13 ZO 1018,7 37 0,0
22.05.2018 13:00:00 21,9 4,5 11 6 26 14 OZO 1019,1 18 0,0
22.05.2018 12:00:00 20,9 4,4 10 6 26 14 NO 1019,6 40 0,0
22.05.2018 11:00:00 21,4 4,9 8 4 20 11 OZO 1020,1 34 0,0
22.05.2018 10:00:00 19,9 5,2 9 5 16 8 N 1020,4 30 0,0
22.05.2018 09:00:00 17,8 4,7 6 3 11 6 NNW 1021,0 37 0,0
22.05.2018 08:00:00 14,0 9,2 0 0 0 0 N 1021,6 38 0,0
22.05.2018 07:00:00 9,0 7,4 0 0 0 0 N 1022,1 39 0,0
22.05.2018 06:00:00 4,3 3,9 0 0 0 0 N 1022,7 30 0,0
22.05.2018 05:00:00 1,1 0,7 0 0 0 0 N 1023,0 13 0,0
22.05.2018 04:00:00 1,7 1,1 0 0 0 0 N 1023,3 2,8 0,0
22.05.2018 03:00:00 2,3 1,7 0 0 0 0 N 1023,5 26 0,0
22.05.2018 02:00:00 3,5 2,6 0 0 1 0 N 1023,7 42 0,0
22.05.2018 01:00:00 4,6 3,6 0 0 3 1 N 1023,8 48 0,0
22.05.2018 00:00:00 5,4 3,6 0 0 3 1 N 1024,2 44 0,0
21.05.2018 23:00:00 7,1 5,1 0 0 5 3 N 1024,4 20 0,0
21.05.2018 22:00:00 9,5 5,7 0 0 18 10 N 1024,5 42 0,0
21.05.2018 21:00:00 15,6 3,7 5 3 18 10 ZO 1024,2 50 0,0
21.05.2018 20:00:00 19,0 3,6 10 5 16 9 OZO 1024,0 50 0,0
21.05.2018 19:00:00 20,8 5,2 9 5 15 8 OZO 1023,9 41 0,0
21.05.2018 18:00:00 22,4 4,9 4 2 15 8 O 1024,2 24 0,0
21.05.2018 17:00:00 23,2 2,1 0 0 16 9 N 1024,9 30 0,0
21.05.2018 16:00:00 23,4 4,8 4 2 16 9 W 1025,5 37 0,0
21.05.2018 15:00:00 22,8 2,3 4 2 16 9 Z 1026,2 31 0,0
21.05.2018 14:00:00 22,0 4,1 6 3 19 10 ZZW 1026,9 12 0,0
21.05.2018 13:00:00 21,7 0,8 8 5 19 10 ZW 1027,4 48 0,0
21.05.2018 12:00:00 21,5 2,7 6 3 15 8 Z 1027,8 39 0,0
21.05.2018 11:00:00 20,2 5,4 8 4 12 7 ZW 1028,4 38 0,0
21.05.2018 10:00:00 19,4 6,8 4 2 8 5 ZZW 1028,6 34 0,0
21.05.2018 09:00:00 16,9 6,1 5 3 8 5 Z 1028,8 39 0,0
21.05.2018 08:00:00 13,8 7,8 4 2 6 3 Z 1029,1 47 0,0
21.05.2018 07:00:00 8,3 6,8 0 0 0 0 N 1029,4 41 0,0
21.05.2018 06:00:00 5,2 4,6 0 0 0 0 N 1029,4 22 0,0
21.05.2018 05:00:00 3,6 3,0 0 0 4 2 N 1029,3 28 0,0
21.05.2018 04:00:00 3,2 2,3 0 0 4 2 N 1029,2 26 0,0
21.05.2018 03:00:00 4,1 2,8 2 1 4 2 ZW 1029,0 50 0,0
21.05.2018 02:00:00 5,5 3,8 0 0 5 3 N 1029,0 50 0,0
21.05.2018 01:00:00 6,4 3,9 0 0 6 4 N 1028,6 50 0,0
21.05.2018 00:00:00 8,1 4,3 0 0 15 8 N 1028,3 50 0,0
20.05.2018 23:00:00 13,7 3,7 7 4 19 10 ZZW 1027,6 50 0,0
20.05.2018 22:00:00 15,9 3,0 12 7 21 12 Z 1027,0 11 0,0
20.05.2018 21:00:00 17,4 3,3 12 7 24 13 Z 1026,2 49 0,0
20.05.2018 20:00:00 21,0 1,3 16 8 24 13 Z 1025,6 5 0,0
20.05.2018 19:00:00 22,4 5,8 8 5 19 10 ZW 1025,5 10 0,0
20.05.2018 18:00:00 23,6 0,6 9 5 23 12 ZZW 1025,5 11 0,0
20.05.2018 17:00:00 24,3 1,2 7 4 33 18 WZW 1026,0 35 0,0
20.05.2018 16:00:00 23,8 2,6 11 6 34 18 ZW 1026,3 15 0,0
20.05.2018 15:00:00 23,7 0,1 16 9 26 14 Z 1026,4 37 0,0
20.05.2018 14:00:00 23,5 1,8 12 7 31 17 ZZW 1026,8 36 0,0
20.05.2018 13:00:00 23,0 3,5 14 7 31 17 ZZO 1026,9 41 0,0
20.05.2018 12:00:00 22,4 0,2 8 4 24 13 ZZW 1027,5 41 0,0
20.05.2018 11:00:00 21,2 2,5 12 6 22 12 ZW 1027,5 30 0,0
20.05.2018 10:00:00 20,4 4,0 13 7 20 11 WZW 1027,5 39 0,0
20.05.2018 09:00:00 18,3 6,2 5 3 12 6 ZZW 1027,2 36 0,0
20.05.2018 08:00:00 15,1 7,4 5 3 8 5 Z 1027,3 48 0,0
20.05.2018 07:00:00 9,4 8,2 0 0 4 2 N 1027,4 40 0,0
20.05.2018 06:00:00 2,7 2,1 0 0 4 2 N 1027,4 40 0,0
20.05.2018 05:00:00 0,3 -0,1 0 0 4 2 N 1027,2 50 0,0
20.05.2018 04:00:00 0,3 -0,3 0 0 3 1 N 1027,1 36 0,0
20.05.2018 03:00:00 1,0 0,3 0 0 1 0 N 1026,8 37 0,0
20.05.2018 02:00:00 1,4 0,5 0 0 5 3 N 1026,4 48 0,0
20.05.2018 01:00:00 2,6 1,3 0 0 5 3 N 1026,2 37 0,0
20.05.2018 00:00:00 3,4 1,9 0 0 6 4 N 1025,8 50 0,0
19.05.2018 23:00:00 5,8 3,5 0 0 6 4 N 1025,2 24 0,0
19.05.2018 22:00:00 7,6 3,5 5 3 16 8 ZO 1024,9 14 0,0
19.05.2018 21:00:00 12,1 3,6 6 3 19 10 ZZO 1024,2 50 0,0
19.05.2018 20:00:00 15,8 3,9 9 5 19 10 ZZO 1023,5 49 0,0
19.05.2018 19:00:00 18,3 2,6 7 4 19 10 ZO 1023,3 43 0,0
19.05.2018 18:00:00 19,7 -0,3 6 4 16 8 ZO 1023,0 34 0,0
19.05.2018 17:00:00 20,1 1,5 4 2 19 10 NNO 1023,0 40 0,0
19.05.2018 16:00:00 20,4 0,2 3 1 19 10 ZW 1023,0 28 0,0
19.05.2018 15:00:00 20,0 2,4 7 4 17 9 Z 1023,2 36 0,0
19.05.2018 14:00:00 19,1 0,6 5 3 17 9 W 1023,4 36 0,0
19.05.2018 13:00:00 18,8 2,6 3 2 21 12 NNW 1023,6 30 0,0
19.05.2018 12:00:00 17,8 0,0 7 4 21 12 O 1023,8 32 0,0

tt = temperatuur
td = dauwpunt
ff = windsnelheid
fx = windstoten
dd = windrichting
ppp = luchtdruk
vv = zicht
rr = neerslag

Weerstations in de omgeving